Wetterdaten: Dienstag, 19.01.2016
Datum Zeit Auen-Temp. Temp gefhlt Luftfeuchte Luftdruck Regen Wind Richtung Richtung Taupunkt Windben
19.01.2016 00:00 -16,7 C -17,2 C 76 % 1018,7 hPa 0,0 mm 0,0 km/h (0 Bft) W 270 -19,9 C 0,0 km/h (0 Bft)
19.01.2016 00:05 -16,6 C -17,1 C 76 % 1018,7 hPa 0,0 mm 0,0 km/h (0 Bft) W 270 -19,8 C 0,0 km/h (0 Bft)
19.01.2016 00:10 -16,6 C -17,0 C 76 % 1018,7 hPa 0,0 mm 0,0 km/h (0 Bft) W 270 -19,8 C 0,0 km/h (0 Bft)
19.01.2016 00:15 -17,0 C -17,4 C 75 % 1018,7 hPa 0,0 mm 0,0 km/h (0 Bft) W 270 -20,3 C 0,0 km/h (0 Bft)
19.01.2016 00:20 -16,6 C -17,1 C 76 % 1018,7 hPa 0,0 mm 0,0 km/h (0 Bft) W-NW 292 -19,8 C 0,0 km/h (0 Bft)
19.01.2016 00:25 -16,5 C -17,0 C 76 % 1019,1 hPa 0,0 mm 0,0 km/h (0 Bft) W-NW 292 -19,7 C 0,0 km/h (0 Bft)
19.01.2016 00:30 -16,6 C -17,0 C 76 % 1019,1 hPa 0,0 mm 0,0 km/h (0 Bft) SW 225 -19,8 C 0,0 km/h (0 Bft)
19.01.2016 00:35 -17,0 C -17,3 C 75 % 1019,1 hPa 0,0 mm 0,0 km/h (0 Bft) W 270 -20,3 C 0,0 km/h (0 Bft)
19.01.2016 00:40 -16,9 C -17,4 C 75 % 1019,1 hPa 0,0 mm 0,0 km/h (0 Bft) S-SW 202 -20,3 C 0,0 km/h (0 Bft)
19.01.2016 00:45 -17,2 C -17,6 C 75 % 1018,7 hPa 0,0 mm 0,0 km/h (0 Bft) S-SW 202 -20,5 C 0,0 km/h (0 Bft)
19.01.2016 00:50 -16,7 C -17,2 C 75 % 1018,7 hPa 0,0 mm 0,0 km/h (0 Bft) S-SO 157 -20,1 C 0,0 km/h (0 Bft)
19.01.2016 00:55 -17,1 C -17,5 C 75 % 1018,7 hPa 0,0 mm 0,0 km/h (0 Bft) O-NO 67 -20,4 C 0,0 km/h (0 Bft)
19.01.2016 01:00 -16,6 C -17,2 C 75 % 1018,7 hPa 0,0 mm 0,0 km/h (0 Bft) O 90 -20,0 C 0,0 km/h (0 Bft)
19.01.2016 01:05 -16,8 C -17,3 C 75 % 1018,3 hPa 0,0 mm 0,0 km/h (0 Bft) O-NO 67 -20,2 C 0,0 km/h (0 Bft)
19.01.2016 01:10 -16,8 C -17,2 C 75 % 1018,3 hPa 0,0 mm 0,0 km/h (0 Bft) O-NO 67 -20,2 C 0,0 km/h (0 Bft)
19.01.2016 01:15 -17,2 C -17,5 C 75 % 1018,3 hPa 0,0 mm 0,0 km/h (0 Bft) N-NW 337 -20,5 C 0,0 km/h (0 Bft)
19.01.2016 01:20 -17,6 C -17,8 C 75 % 1018,3 hPa 0,0 mm 0,0 km/h (0 Bft) NW 315 -20,9 C 0,0 km/h (0 Bft)
19.01.2016 01:25 -17,1 C -17,5 C 75 % 1018,2 hPa 0,0 mm 0,0 km/h (0 Bft) NW 315 -20,4 C 0,0 km/h (0 Bft)
19.01.2016 01:30 -17,3 C -17,6 C 75 % 1018,2 hPa 0,0 mm 0,0 km/h (0 Bft) NW 315 -20,6 C 0,0 km/h (0 Bft)
19.01.2016 01:35 -17,2 C -17,5 C 75 % 1018,2 hPa 0,0 mm 0,0 km/h (0 Bft) NW 315 -20,5 C 0,0 km/h (0 Bft)
19.01.2016 01:40 -16,7 C -16,9 C 74 % 1018,2 hPa 0,0 mm 0,0 km/h (0 Bft) NW 315 -20,2 C 0,0 km/h (0 Bft)
19.01.2016 01:45 -16,5 C -16,6 C 75 % 1018,2 hPa 0,0 mm 0,0 km/h (0 Bft) NO 45 -19,9 C 0,0 km/h (0 Bft)
19.01.2016 01:50 -15,9 C -15,9 C 75 % 1018,2 hPa 0,0 mm 0,0 km/h (0 Bft) NO 45 -19,3 C 0,0 km/h (0 Bft)
19.01.2016 01:55 -15,9 C -15,7 C 75 % 1018,2 hPa 0,0 mm 0,0 km/h (0 Bft) N-NW 337 -19,3 C 0,0 km/h (0 Bft)
19.01.2016 02:00 -15,4 C -15,1 C 75 % 1018,2 hPa 0,0 mm 0,0 km/h (0 Bft) NO 45 -18,8 C 0,0 km/h (0 Bft)
19.01.2016 02:05 -15,1 C -14,9 C 75 % 1018,2 hPa 0,0 mm 0,0 km/h (0 Bft) N-NO 22 -18,5 C 0,0 km/h (0 Bft)
19.01.2016 02:10 -15,0 C -14,8 C 75 % 1018,2 hPa 0,0 mm 0,0 km/h (0 Bft) NO 45 -18,4 C 0,0 km/h (0 Bft)
19.01.2016 02:15 -14,8 C -14,6 C 75 % 1018,2 hPa 0,0 mm 0,0 km/h (0 Bft) NO 45 -18,2 C 0,0 km/h (0 Bft)
19.01.2016 02:20 -14,8 C -14,8 C 77 % 1018,2 hPa 0,0 mm 0,0 km/h (0 Bft) N-NW 337 -17,9 C 0,0 km/h (0 Bft)
19.01.2016 02:25 -14,6 C -14,7 C 77 % 1018,2 hPa 0,0 mm 0,0 km/h (0 Bft) N-NW 337 -17,7 C 0,0 km/h (0 Bft)
19.01.2016 02:30 -14,7 C -14,7 C 77 % 1018,2 hPa 0,0 mm 0,0 km/h (0 Bft) N-NW 337 -17,8 C 0,0 km/h (0 Bft)
19.01.2016 02:35 -14,5 C -14,5 C 77 % 1018,2 hPa 0,0 mm 0,0 km/h (0 Bft) N-NW 337 -17,6 C 0,0 km/h (0 Bft)
19.01.2016 02:40 -14,2 C -14,1 C 75 % 1018,2 hPa 0,0 mm 0,0 km/h (0 Bft) N-NW 337 -17,6 C 0,0 km/h (0 Bft)
19.01.2016 02:45 -14,1 C -14,0 C 76 % 1017,9 hPa 0,0 mm 0,0 km/h (0 Bft) N-NW 337 -17,4 C 0,0 km/h (0 Bft)
19.01.2016 02:50 -13,9 C -13,9 C 76 % 1017,9 hPa 0,0 mm 0,0 km/h (0 Bft) NW 315 -17,2 C 0,0 km/h (0 Bft)
19.01.2016 02:55 -13,7 C -13,6 C 76 % 1017,9 hPa 0,0 mm 0,0 km/h (0 Bft) O-NO 67 -17,0 C 0,0 km/h (0 Bft)
19.01.2016 03:00 -13,4 C -13,1 C 76 % 1017,9 hPa 0,0 mm 0,0 km/h (0 Bft) SW 225 -16,7 C 0,0 km/h (0 Bft)
19.01.2016 03:05 -13,2 C -12,8 C 76 % 1017,8 hPa 0,0 mm 0,0 km/h (0 Bft) W-SW 247 -16,5 C 0,0 km/h (0 Bft)
19.01.2016 03:10 -12,9 C -12,7 C 76 % 1017,8 hPa 0,0 mm 0,0 km/h (0 Bft) W-SW 247 -16,2 C 0,0 km/h (0 Bft)
19.01.2016 03:15 -12,7 C -12,5 C 76 % 1017,8 hPa 0,0 mm 0,0 km/h (0 Bft) W-SW 247 -16,0 C 0,0 km/h (0 Bft)
19.01.2016 03:20 -12,5 C -12,3 C 76 % 1017,8 hPa 0,0 mm 0,0 km/h (0 Bft) W-SW 247 -15,8 C 0,0 km/h (0 Bft)
19.01.2016 03:25 -12,3 C -12,0 C 76 % 1017,6 hPa 0,0 mm 0,0 km/h (0 Bft) W 270 -15,6 C 0,0 km/h (0 Bft)
19.01.2016 03:30 -12,0 C -11,7 C 77 % 1017,6 hPa 0,0 mm 0,0 km/h (0 Bft) W-NW 292 -15,2 C 0,0 km/h (0 Bft)
19.01.2016 03:35 -11,8 C -11,5 C 77 % 1017,6 hPa 0,0 mm 0,0 km/h (0 Bft) W 270 -15,0 C 0,0 km/h (0 Bft)
19.01.2016 03:39 -11,7 C -11,3 C 77 % 1017,6 hPa 0,0 mm 0,0 km/h (0 Bft) W 270 -14,9 C 0,0 km/h (0 Bft)
19.01.2016 03:40 -11,7 C -11,3 C 77 % 1017,6 hPa 0,0 mm 0,0 km/h (0 Bft) W 270 -14,9 C 0,0 km/h (0 Bft)
19.01.2016 03:45 -11,3 C -11,1 C 77 % 1017,5 hPa 0,0 mm 0,0 km/h (0 Bft) W 270 -14,5 C 0,0 km/h (0 Bft)
19.01.2016 03:50 -11,1 C -10,9 C 77 % 1017,5 hPa 0,0 mm 0,0 km/h (0 Bft) NW 315 -14,3 C 0,0 km/h (0 Bft)
19.01.2016 03:55 -11,1 C -10,8 C 77 % 1017,5 hPa 0,0 mm 0,0 km/h (0 Bft) NW 315 -14,3 C 0,0 km/h (0 Bft)
19.01.2016 04:00 -10,8 C -10,6 C 77 % 1017,5 hPa 0,0 mm 0,3 km/h (0 Bft) W-SW 247 -14,0 C 0,0 km/h (0 Bft)
19.01.2016 04:05 -10,6 C -10,4 C 77 % 1017,4 hPa 0,0 mm 0,3 km/h (0 Bft) SW 225 -13,8 C 4,1 km/h (1 Bft)
19.01.2016 04:10 -10,1 C -10,0 C 78 % 1017,4 hPa 0,0 mm 0,0 km/h (0 Bft) NW 315 -13,2 C 0,0 km/h (0 Bft)
19.01.2016 04:15 -10,0 C -10,0 C 78 % 1017,4 hPa 0,0 mm 0,0 km/h (0 Bft) W 270 -13,1 C 0,0 km/h (0 Bft)
19.01.2016 04:20 -10,0 C -9,8 C 78 % 1017,4 hPa 0,0 mm 0,0 km/h (0 Bft) NW 315 -13,1 C 0,0 km/h (0 Bft)
19.01.2016 04:25 -9,8 C -9,7 C 78 % 1017,4 hPa 0,0 mm 0,0 km/h (0 Bft) W 270 -12,9 C 0,0 km/h (0 Bft)
19.01.2016 04:30 -9,5 C -9,5 C 78 % 1017,4 hPa 0,0 mm 0,0 km/h (0 Bft) W-SW 247 -12,6 C 0,0 km/h (0 Bft)
19.01.2016 04:35 -9,4 C -9,4 C 78 % 1017,4 hPa 0,0 mm 0,0 km/h (0 Bft) NW 315 -12,5 C 0,0 km/h (0 Bft)
19.01.2016 04:40 -9,4 C -9,4 C 78 % 1017,4 hPa 0,0 mm 0,0 km/h (0 Bft) SW 225 -12,5 C 0,0 km/h (0 Bft)
19.01.2016 04:45 -9,4 C -9,4 C 78 % 1017,2 hPa 0,0 mm 0,0 km/h (0 Bft) SW 225 -12,5 C 0,0 km/h (0 Bft)
19.01.2016 04:50 -9,4 C -9,4 C 78 % 1017,2 hPa 0,0 mm 0,0 km/h (0 Bft) SW 225 -12,5 C 0,0 km/h (0 Bft)
19.01.2016 04:55 -9,4 C -9,4 C 78 % 1017,2 hPa 0,0 mm 0,0 km/h (0 Bft) W-NW 292 -12,5 C 0,0 km/h (0 Bft)
19.01.2016 05:00 -9,1 C -9,1 C 78 % 1017,2 hPa 0,0 mm 0,3 km/h (0 Bft) O-NO 67 -12,2 C 0,0 km/h (0 Bft)
19.01.2016 05:05 -9,1 C -9,0 C 78 % 1017,2 hPa 0,0 mm 0,3 km/h (0 Bft) SO 135 -12,2 C 4,7 km/h (1 Bft)
19.01.2016 05:10 -8,8 C -8,8 C 79 % 1017,2 hPa 0,0 mm 0,0 km/h (0 Bft) W 270 -11,8 C 0,0 km/h (0 Bft)
19.01.2016 05:15 -8,8 C -8,9 C 83 % 1017,2 hPa 0,0 mm 0,0 km/h (0 Bft) W 270 -11,1 C 0,0 km/h (0 Bft)
19.01.2016 05:20 -8,8 C -8,9 C 83 % 1017,2 hPa 0,0 mm 0,0 km/h (0 Bft) W-SW 247 -11,1 C 0,0 km/h (0 Bft)
19.01.2016 05:25 -8,6 C -8,8 C 83 % 1017,2 hPa 0,0 mm 0,0 km/h (0 Bft) W-SW 247 -11,0 C 0,0 km/h (0 Bft)
19.01.2016 05:30 -8,7 C -8,8 C 83 % 1017,2 hPa 0,0 mm 0,0 km/h (0 Bft) W-SW 247 -11,0 C 0,0 km/h (0 Bft)
19.01.2016 05:35 -8,8 C -8,9 C 83 % 1017,2 hPa 0,0 mm 0,0 km/h (0 Bft) W-SW 247 -11,1 C 0,0 km/h (0 Bft)
19.01.2016 05:40 -8,7 C -8,8 C 83 % 1017,2 hPa 0,0 mm 0,0 km/h (0 Bft) SW 225 -11,0 C 0,0 km/h (0 Bft)
19.01.2016 05:45 -8,5 C -8,7 C 83 % 1017,2 hPa 0,0 mm 0,0 km/h (0 Bft) W 270 -10,9 C 0,0 km/h (0 Bft)
19.01.2016 05:50 -8,4 C -8,6 C 83 % 1017,2 hPa 0,0 mm 0,0 km/h (0 Bft) W-SW 247 -10,8 C 0,0 km/h (0 Bft)
19.01.2016 05:55 -8,4 C -8,6 C 84 % 1017,2 hPa 0,0 mm 0,0 km/h (0 Bft) W 270 -10,6 C 0,0 km/h (0 Bft)
19.01.2016 06:00 -8,5 C -8,7 C 83 % 1017,2 hPa 0,0 mm 0,0 km/h (0 Bft) S 180 -10,9 C 0,0 km/h (0 Bft)
19.01.2016 06:05 -8,7 C -8,8 C 83 % 1017,1 hPa 0,0 mm 0,0 km/h (0 Bft) W 270 -11,0 C 0,0 km/h (0 Bft)
19.01.2016 06:10 -8,6 C -8,8 C 83 % 1017,1 hPa 0,0 mm 0,0 km/h (0 Bft) W-NW 292 -11,0 C 0,0 km/h (0 Bft)
19.01.2016 06:15 -8,6 C -8,8 C 83 % 1017,1 hPa 0,0 mm 0,0 km/h (0 Bft) W-NW 292 -11,0 C 0,0 km/h (0 Bft)
19.01.2016 06:20 -8,7 C -8,9 C 83 % 1017,1 hPa 0,0 mm 0,0 km/h (0 Bft) SW 225 -11,0 C 0,0 km/h (0 Bft)
19.01.2016 06:25 -8,6 C -8,8 C 83 % 1017,2 hPa 0,0 mm 0,0 km/h (0 Bft) NW 315 -11,0 C 0,0 km/h (0 Bft)
19.01.2016 06:30 -8,7 C -8,9 C 83 % 1017,2 hPa 0,0 mm 0,0 km/h (0 Bft) W-SW 247 -11,0 C 0,0 km/h (0 Bft)
19.01.2016 06:35 -8,5 C -8,7 C 83 % 1017,2 hPa 0,0 mm 0,0 km/h (0 Bft) S 180 -10,9 C 0,0 km/h (0 Bft)
19.01.2016 06:40 -8,3 C -8,6 C 84 % 1017,2 hPa 0,0 mm 0,0 km/h (0 Bft) W 270 -10,5 C 0,0 km/h (0 Bft)
19.01.2016 06:45 -8,3 C -8,5 C 84 % 1017,3 hPa 0,0 mm 0,0 km/h (0 Bft) W 270 -10,5 C 0,0 km/h (0 Bft)
19.01.2016 06:50 -8,3 C -8,5 C 84 % 1017,3 hPa 0,0 mm 0,0 km/h (0 Bft) W 270 -10,5 C 0,0 km/h (0 Bft)
19.01.2016 06:55 -8,3 C -8,5 C 84 % 1017,3 hPa 0,0 mm 0,0 km/h (0 Bft) W 270 -10,5 C 0,0 km/h (0 Bft)
19.01.2016 07:00 -8,5 C -8,7 C 84 % 1017,3 hPa 0,0 mm 0,0 km/h (0 Bft) W 270 -10,7 C 0,0 km/h (0 Bft)
19.01.2016 07:05 -8,5 C -8,7 C 83 % 1017,2 hPa 0,0 mm 0,0 km/h (0 Bft) W 270 -10,9 C 0,0 km/h (0 Bft)
19.01.2016 07:10 -8,5 C -8,7 C 83 % 1017,2 hPa 0,0 mm 0,0 km/h (0 Bft) W 270 -10,9 C 0,0 km/h (0 Bft)
19.01.2016 07:15 -8,5 C -8,7 C 83 % 1017,2 hPa 0,0 mm 0,0 km/h (0 Bft) W-NW 292 -10,9 C 0,0 km/h (0 Bft)
19.01.2016 07:20 -8,4 C -8,7 C 83 % 1017,2 hPa 0,0 mm 0,0 km/h (0 Bft) W 270 -10,8 C 0,0 km/h (0 Bft)
19.01.2016 07:25 -8,5 C -8,7 C 83 % 1017,4 hPa 0,0 mm 0,0 km/h (0 Bft) W 270 -10,9 C 0,0 km/h (0 Bft)
19.01.2016 07:30 -8,7 C -8,9 C 83 % 1017,4 hPa 0,0 mm 0,0 km/h (0 Bft) W 270 -11,0 C 0,0 km/h (0 Bft)
19.01.2016 07:35 -8,7 C -8,9 C 83 % 1017,4 hPa 0,0 mm 0,0 km/h (0 Bft) W 270 -11,0 C 0,0 km/h (0 Bft)
19.01.2016 07:40 -8,7 C -8,9 C 83 % 1017,4 hPa 0,0 mm 0,0 km/h (0 Bft) W 270 -11,0 C 0,0 km/h (0 Bft)
19.01.2016 07:45 -8,6 C -8,8 C 83 % 1017,4 hPa 0,0 mm 0,0 km/h (0 Bft) W 270 -11,0 C 0,0 km/h (0 Bft)
19.01.2016 07:50 -8,4 C -8,7 C 83 % 1017,4 hPa 0,0 mm 0,0 km/h (0 Bft) SW 225 -10,8 C 0,0 km/h (0 Bft)
19.01.2016 07:55 -8,4 C -8,7 C 83 % 1017,4 hPa 0,0 mm 0,0 km/h (0 Bft) W 270 -10,8 C 0,0 km/h (0 Bft)
19.01.2016 08:00 -8,6 C -8,8 C 83 % 1017,4 hPa 0,0 mm 0,0 km/h (0 Bft) W 270 -11,0 C 0,0 km/h (0 Bft)
19.01.2016 08:05 -8,6 C -8,8 C 83 % 1017,8 hPa 0,0 mm 0,0 km/h (0 Bft) S 180 -11,0 C 0,0 km/h (0 Bft)
19.01.2016 08:10 -8,5 C -8,7 C 83 % 1017,8 hPa 0,0 mm 0,0 km/h (0 Bft) S 180 -10,9 C 0,0 km/h (0 Bft)
19.01.2016 08:15 -8,2 C -8,4 C 83 % 1017,8 hPa 0,0 mm 0,3 km/h (0 Bft) SW 225 -10,6 C 0,0 km/h (0 Bft)
19.01.2016 08:20 -8,1 C -8,3 C 83 % 1017,8 hPa 0,0 mm 0,3 km/h (0 Bft) W 270 -10,5 C 0,0 km/h (0 Bft)
19.01.2016 08:25 -8,0 C -8,2 C 83 % 1018,1 hPa 0,0 mm 0,0 km/h (0 Bft) W 270 -10,4 C 0,0 km/h (0 Bft)
19.01.2016 08:30 -7,8 C -7,8 C 79 % 1018,1 hPa 0,0 mm 0,8 km/h (0 Bft) SW 225 -10,8 C 3,6 km/h (1 Bft)
19.01.2016 08:35 -7,5 C -7,6 C 79 % 1018,1 hPa 0,0 mm 1,0 km/h (0 Bft) W-SW 247 -10,5 C 4,9 km/h (1 Bft)
19.01.2016 08:40 -7,2 C -7,3 C 79 % 1018,1 hPa 0,0 mm 2,1 km/h (1 Bft) SO 135 -10,2 C 0,0 km/h (0 Bft)
19.01.2016 08:45 -7,2 C -7,2 C 79 % 1018,0 hPa 0,0 mm 2,1 km/h (1 Bft) W 270 -10,2 C 6,0 km/h (2 Bft)
19.01.2016 08:50 -7,2 C -7,1 C 79 % 1018,0 hPa 0,0 mm 0,5 km/h (0 Bft) S-SW 202 -10,2 C 0,0 km/h (0 Bft)
19.01.2016 08:55 -7,2 C -6,9 C 79 % 1018,0 hPa 0,0 mm 0,0 km/h (0 Bft) S 180 -10,2 C 0,0 km/h (0 Bft)
19.01.2016 09:00 -6,9 C -6,6 C 79 % 1018,0 hPa 0,0 mm 0,0 km/h (0 Bft) W-SW 247 -9,9 C 0,0 km/h (0 Bft)
19.01.2016 09:05 -6,9 C -6,5 C 79 % 1018,1 hPa 0,0 mm 0,0 km/h (0 Bft) W-SW 247 -9,9 C 0,0 km/h (0 Bft)
19.01.2016 09:10 -6,6 C -6,0 C 80 % 1018,1 hPa 0,0 mm 0,8 km/h (0 Bft) SW 225 -9,5 C 6,2 km/h (2 Bft)
19.01.2016 09:15 -6,3 C -5,9 C 80 % 1018,1 hPa 0,0 mm 1,8 km/h (1 Bft) S-SO 157 -9,2 C 7,3 km/h (2 Bft)
19.01.2016 09:20 -6,2 C -5,7 C 80 % 1018,1 hPa 0,0 mm 1,6 km/h (1 Bft) S-SO 157 -9,1 C 0,0 km/h (0 Bft)
19.01.2016 09:25 -6,2 C -5,4 C 80 % 1018,2 hPa 0,0 mm 0,0 km/h (0 Bft) S-SO 157 -9,1 C 8,0 km/h (2 Bft)
19.01.2016 09:30 -5,7 C -4,9 C 80 % 1018,2 hPa 0,0 mm 0,0 km/h (0 Bft) W-SW 247 -8,6 C 0,0 km/h (0 Bft)
19.01.2016 09:35 -5,6 C -4,7 C 80 % 1018,2 hPa 0,0 mm 0,0 km/h (0 Bft) W-SW 247 -8,5 C 0,0 km/h (0 Bft)
19.01.2016 09:40 -5,4 C -4,4 C 80 % 1018,2 hPa 0,0 mm 0,0 km/h (0 Bft) W-SW 247 -8,3 C 0,0 km/h (0 Bft)
19.01.2016 09:42 -5,4 C -4,4 C 80 % 1018,2 hPa 0,0 mm 0,0 km/h (0 Bft) W-SW 247 -8,3 C 0,0 km/h (0 Bft)
19.01.2016 09:45 -5,1 C -4,4 C 80 % 1018,3 hPa 0,0 mm 0,5 km/h (0 Bft) SW 225 -8,0 C 4,7 km/h (1 Bft)
19.01.2016 09:50 -5,0 C -4,2 C 80 % 1018,3 hPa 0,0 mm 1,0 km/h (0 Bft) NW 315 -7,9 C 0,0 km/h (0 Bft)
19.01.2016 09:55 -4,7 C -3,6 C 80 % 1018,3 hPa 0,0 mm 0,5 km/h (0 Bft) NW 315 -7,6 C 0,0 km/h (0 Bft)
19.01.2016 10:00 -4,5 C -3,5 C 80 % 1018,3 hPa 0,0 mm 0,0 km/h (0 Bft) NW 315 -7,4 C 0,0 km/h (0 Bft)
19.01.2016 10:05 -4,5 C -3,5 C 80 % 1018,7 hPa 0,0 mm 0,8 km/h (0 Bft) NW 315 -7,4 C 3,1 km/h (1 Bft)
19.01.2016 10:10 -4,4 C -3,3 C 80 % 1018,7 hPa 0,0 mm 1,3 km/h (1 Bft) W 270 -7,3 C 0,0 km/h (0 Bft)
19.01.2016 10:15 -4,0 C -3,1 C 80 % 1018,7 hPa 0,0 mm 0,5 km/h (0 Bft) NW 315 -6,9 C 0,0 km/h (0 Bft)
19.01.2016 10:20 -4,1 C -3,2 C 80 % 1018,7 hPa 0,0 mm 0,3 km/h (0 Bft) NW 315 -7,0 C 0,0 km/h (0 Bft)
19.01.2016 10:25 -4,1 C -3,0 C 79 % 1018,9 hPa 0,0 mm 0,5 km/h (0 Bft) N-NW 337 -7,2 C 2,6 km/h (1 Bft)
19.01.2016 10:30 -4,3 C -3,3 C 79 % 1018,9 hPa 0,0 mm 1,0 km/h (0 Bft) NW 315 -7,4 C 5,2 km/h (1 Bft)
19.01.2016 10:35 -4,3 C -3,4 C 79 % 1018,9 hPa 0,0 mm 1,6 km/h (1 Bft) N 360 -7,4 C 0,0 km/h (0 Bft)
19.01.2016 10:40 -4,4 C -3,4 C 79 % 1018,9 hPa 0,0 mm 1,8 km/h (1 Bft) W-NW 292 -7,5 C 0,0 km/h (0 Bft)
19.01.2016 10:45 -4,5 C -3,4 C 79 % 1019,0 hPa 0,0 mm 0,8 km/h (0 Bft) W-NW 292 -7,6 C 0,0 km/h (0 Bft)
19.01.2016 10:50 -4,5 C -3,3 C 78 % 1019,0 hPa 0,0 mm 0,3 km/h (0 Bft) NW 315 -7,7 C 0,0 km/h (0 Bft)
19.01.2016 10:55 -4,4 C -3,3 C 78 % 1019,0 hPa 0,0 mm 0,3 km/h (0 Bft) N-NW 337 -7,6 C 2,6 km/h (1 Bft)
19.01.2016 11:00 -4,4 C -3,3 C 78 % 1019,0 hPa 0,0 mm 0,0 km/h (0 Bft) NW 315 -7,6 C 0,0 km/h (0 Bft)
19.01.2016 11:05 -4,3 C -3,3 C 78 % 1019,0 hPa 0,0 mm 0,0 km/h (0 Bft) N-NO 22 -7,5 C 0,0 km/h (0 Bft)
19.01.2016 11:10 -4,3 C -3,2 C 77 % 1019,0 hPa 0,0 mm 0,0 km/h (0 Bft) NW 315 -7,7 C 0,0 km/h (0 Bft)
19.01.2016 11:15 -4,3 C -3,3 C 77 % 1019,0 hPa 0,0 mm 0,0 km/h (0 Bft) N-NO 22 -7,7 C 0,0 km/h (0 Bft)
19.01.2016 11:20 -4,4 C -3,5 C 77 % 1019,0 hPa 0,0 mm 0,0 km/h (0 Bft) N-NW 337 -7,8 C 0,0 km/h (0 Bft)
19.01.2016 11:25 -4,4 C -3,3 C 77 % 1019,1 hPa 0,0 mm 0,0 km/h (0 Bft) NW 315 -7,8 C 0,0 km/h (0 Bft)
19.01.2016 11:30 -4,3 C -2,9 C 76 % 1019,1 hPa 0,0 mm 0,0 km/h (0 Bft) N 360 -7,9 C 0,0 km/h (0 Bft)
19.01.2016 11:35 -4,3 C -3,0 C 76 % 1019,1 hPa 0,0 mm 0,3 km/h (0 Bft) O 90 -7,9 C 0,0 km/h (0 Bft)
19.01.2016 11:40 -4,1 C -2,9 C 76 % 1019,1 hPa 0,0 mm 0,3 km/h (0 Bft) O-SO 112 -7,7 C 0,0 km/h (0 Bft)
19.01.2016 11:45 -4,1 C -2,7 C 76 % 1019,0 hPa 0,0 mm 0,5 km/h (0 Bft) O-NO 67 -7,7 C 3,1 km/h (1 Bft)
19.01.2016 11:50 -4,1 C -3,1 C 75 % 1019,0 hPa 0,0 mm 1,3 km/h (1 Bft) O-NO 67 -7,9 C 0,0 km/h (0 Bft)
19.01.2016 11:55 -4,1 C -2,9 C 75 % 1019,0 hPa 0,0 mm 1,0 km/h (0 Bft) N-NO 22 -7,9 C 4,7 km/h (1 Bft)
19.01.2016 12:00 -4,0 C -3,0 C 75 % 1019,0 hPa 0,0 mm 0,5 km/h (0 Bft) O-NO 67 -7,8 C 0,0 km/h (0 Bft)
19.01.2016 12:05 -4,0 C -2,8 C 75 % 1018,7 hPa 0,0 mm 0,8 km/h (0 Bft) O-NO 67 -7,8 C 0,0 km/h (0 Bft)
19.01.2016 12:10 -4,0 C -2,4 C 74 % 1018,7 hPa 0,0 mm 1,3 km/h (1 Bft) O-NO 67 -7,9 C 2,8 km/h (1 Bft)
19.01.2016 12:15 -3,9 C -2,3 C 74 % 1018,7 hPa 0,0 mm 1,3 km/h (1 Bft) NO 45 -7,8 C 0,0 km/h (0 Bft)
19.01.2016 12:20 -3,7 C -2,2 C 74 % 1018,7 hPa 0,0 mm 0,5 km/h (0 Bft) O-NO 67 -7,6 C 3,6 km/h (1 Bft)
19.01.2016 12:25 -3,7 C -2,2 C 74 % 1019,0 hPa 0,0 mm 1,6 km/h (1 Bft) O-NO 67 -7,6 C 3,6 km/h (1 Bft)
19.01.2016 12:30 -3,7 C -2,3 C 73 % 1019,0 hPa 0,0 mm 2,8 km/h (1 Bft) O-NO 67 -7,8 C 5,2 km/h (1 Bft)
19.01.2016 12:35 -3,9 C -2,5 C 73 % 1019,0 hPa 0,0 mm 3,1 km/h (1 Bft) O-NO 67 -8,0 C 4,4 km/h (1 Bft)
19.01.2016 12:40 -3,9 C -3,3 C 73 % 1019,0 hPa 0,0 mm 4,4 km/h (1 Bft) O-NO 67 -8,0 C 5,7 km/h (1 Bft)
19.01.2016 12:45 -4,0 C -3,1 C 73 % 1018,9 hPa 0,0 mm 3,9 km/h (1 Bft) O-NO 67 -8,1 C 0,0 km/h (0 Bft)
19.01.2016 12:50 -3,9 C -2,9 C 74 % 1018,9 hPa 0,0 mm 2,6 km/h (1 Bft) O-NO 67 -7,8 C 4,9 km/h (1 Bft)
19.01.2016 12:55 -3,9 C -3,0 C 74 % 1018,9 hPa 0,0 mm 2,6 km/h (1 Bft) O-NO 67 -7,8 C 5,4 km/h (1 Bft)
19.01.2016 13:00 -4,0 C -3,6 C 74 % 1018,9 hPa 0,0 mm 4,4 km/h (1 Bft) O-SO 112 -7,9 C 4,9 km/h (1 Bft)
19.01.2016 13:05 -4,1 C -3,4 C 74 % 1018,7 hPa 0,0 mm 3,6 km/h (1 Bft) NO 45 -8,0 C 3,4 km/h (1 Bft)
19.01.2016 13:10 -4,1 C -3,4 C 75 % 1018,7 hPa 0,0 mm 3,1 km/h (1 Bft) NO 45 -7,9 C 4,9 km/h (1 Bft)
19.01.2016 13:15 -4,3 C -3,5 C 75 % 1018,7 hPa 0,0 mm 3,6 km/h (1 Bft) NO 45 -8,0 C 4,4 km/h (1 Bft)
19.01.2016 13:20 -4,3 C -3,6 C 75 % 1018,7 hPa 0,0 mm 4,1 km/h (1 Bft) O-NO 67 -8,0 C 5,7 km/h (1 Bft)
19.01.2016 13:25 -4,4 C -3,8 C 76 % 1018,7 hPa 0,0 mm 4,1 km/h (1 Bft) O-NO 67 -8,0 C 5,4 km/h (1 Bft)
19.01.2016 13:30 -4,4 C -4,0 C 76 % 1018,7 hPa 0,0 mm 4,9 km/h (1 Bft) O-NO 67 -8,0 C 6,2 km/h (2 Bft)
19.01.2016 13:35 -4,4 C -3,9 C 76 % 1018,7 hPa 0,0 mm 4,9 km/h (1 Bft) N-NO 22 -8,0 C 3,4 km/h (1 Bft)
19.01.2016 13:40 -4,3 C -3,8 C 77 % 1018,7 hPa 0,0 mm 4,7 km/h (1 Bft) O-NO 67 -7,7 C 5,4 km/h (1 Bft)
19.01.2016 13:45 -4,3 C -3,5 C 77 % 1018,3 hPa 0,0 mm 3,6 km/h (1 Bft) O-NO 67 -7,7 C 0,0 km/h (0 Bft)
19.01.2016 13:50 -4,1 C -3,3 C 77 % 1018,3 hPa 0,0 mm 3,4 km/h (1 Bft) O-NO 67 -7,5 C 6,2 km/h (2 Bft)
19.01.2016 13:55 -4,3 C -3,5 C 77 % 1018,3 hPa 0,0 mm 3,9 km/h (1 Bft) O-NO 67 -7,7 C 5,4 km/h (1 Bft)
19.01.2016 14:00 -4,3 C -3,7 C 78 % 1018,3 hPa 0,0 mm 5,4 km/h (1 Bft) O-NO 67 -7,5 C 5,4 km/h (1 Bft)
19.01.2016 14:05 -4,3 C -3,7 C 78 % 1018,3 hPa 0,0 mm 5,2 km/h (1 Bft) O-NO 67 -7,5 C 5,2 km/h (1 Bft)
19.01.2016 14:10 -4,1 C -3,7 C 78 % 1018,3 hPa 0,0 mm 4,1 km/h (1 Bft) O-NO 67 -7,4 C 3,9 km/h (1 Bft)
19.01.2016 14:15 -4,3 C -3,9 C 78 % 1018,3 hPa 0,0 mm 4,1 km/h (1 Bft) O-NO 67 -7,5 C 5,2 km/h (1 Bft)
19.01.2016 14:20 -4,1 C -3,7 C 78 % 1018,3 hPa 0,0 mm 2,8 km/h (1 Bft) O-SO 112 -7,4 C 4,9 km/h (1 Bft)
19.01.2016 14:25 -4,1 C -3,6 C 78 % 1018,3 hPa 0,0 mm 1,8 km/h (1 Bft) NO 45 -7,4 C 2,8 km/h (1 Bft)
19.01.2016 14:30 -4,1 C -3,6 C 78 % 1018,3 hPa 0,0 mm 1,8 km/h (1 Bft) O-SO 112 -7,4 C 0,0 km/h (0 Bft)
19.01.2016 14:35 -4,1 C -3,5 C 79 % 1018,3 hPa 0,0 mm 1,6 km/h (1 Bft) N-NO 22 -7,2 C 3,4 km/h (1 Bft)
19.01.2016 14:40 -4,0 C -3,6 C 79 % 1018,3 hPa 0,0 mm 0,5 km/h (0 Bft) O-SO 112 -7,1 C 0,0 km/h (0 Bft)
19.01.2016 14:45 -4,0 C -3,6 C 79 % 1018,4 hPa 0,0 mm 0,3 km/h (0 Bft) O-NO 67 -7,1 C 0,0 km/h (0 Bft)
19.01.2016 14:50 -4,0 C -3,4 C 79 % 1018,4 hPa 0,0 mm 0,0 km/h (0 Bft) N-NO 22 -7,1 C 0,0 km/h (0 Bft)
19.01.2016 14:55 -3,9 C -3,3 C 79 % 1018,4 hPa 0,0 mm 0,0 km/h (0 Bft) NW 315 -7,0 C 0,0 km/h (0 Bft)
19.01.2016 15:00 -3,9 C -3,4 C 79 % 1018,4 hPa 0,0 mm 0,3 km/h (0 Bft) N-NW 337 -7,0 C 0,0 km/h (0 Bft)
19.01.2016 15:05 -3,7 C -3,3 C 79 % 1018,3 hPa 0,0 mm 0,3 km/h (0 Bft) N-NW 337 -6,8 C 0,0 km/h (0 Bft)
19.01.2016 15:10 -3,7 C -3,3 C 79 % 1018,3 hPa 0,0 mm 0,3 km/h (0 Bft) NO 45 -6,8 C 0,0 km/h (0 Bft)
19.01.2016 15:15 -3,9 C -3,5 C 79 % 1018,3 hPa 0,0 mm 0,3 km/h (0 Bft) O-NO 67 -7,0 C 0,0 km/h (0 Bft)
19.01.2016 15:20 -3,9 C -3,6 C 79 % 1018,3 hPa 0,0 mm 1,0 km/h (0 Bft) O-NO 67 -7,0 C 3,1 km/h (1 Bft)
19.01.2016 15:25 -4,0 C -3,6 C 79 % 1018,3 hPa 0,0 mm 1,6 km/h (1 Bft) O-NO 67 -7,1 C 0,0 km/h (0 Bft)
19.01.2016 15:30 -4,0 C -3,5 C 79 % 1018,3 hPa 0,0 mm 1,0 km/h (0 Bft) O-NO 67 -7,1 C 0,0 km/h (0 Bft)
19.01.2016 15:35 -3,9 C -3,6 C 79 % 1018,3 hPa 0,0 mm 0,0 km/h (0 Bft) O-NO 67 -7,0 C 0,0 km/h (0 Bft)
19.01.2016 15:40 -3,9 C -3,3 C 79 % 1018,3 hPa 0,0 mm 0,0 km/h (0 Bft) N-NO 22 -7,0 C 0,0 km/h (0 Bft)
19.01.2016 15:43 -3,9 C -3,3 C 79 % 1018,3 hPa 0,0 mm 0,0 km/h (0 Bft) N-NO 22 -7,0 C 0,0 km/h (0 Bft)
19.01.2016 15:45 -3,7 C -3,2 C 79 % 1018,4 hPa 0,0 mm 0,0 km/h (0 Bft) S-SO 157 -6,8 C 0,0 km/h (0 Bft)
19.01.2016 15:50 -3,5 C -3,0 C 80 % 1018,4 hPa 0,0 mm 1,3 km/h (1 Bft) S-SO 157 -6,4 C 0,0 km/h (0 Bft)
19.01.2016 15:55 -3,2 C -2,9 C 80 % 1018,4 hPa 0,0 mm 2,3 km/h (1 Bft) SW 225 -6,1 C 8,3 km/h (2 Bft)
19.01.2016 16:00 -3,0 C -2,7 C 80 % 1018,4 hPa 0,0 mm 3,4 km/h (1 Bft) S-SW 202 -6,0 C 3,6 km/h (1 Bft)
19.01.2016 16:05 -3,0 C -2,8 C 80 % 1018,2 hPa 0,0 mm 2,8 km/h (1 Bft) N-NW 337 -6,0 C 8,5 km/h (2 Bft)
19.01.2016 16:10 -3,2 C -3,1 C 80 % 1018,2 hPa 0,0 mm 0,8 km/h (0 Bft) O-NO 67 -6,1 C 0,0 km/h (0 Bft)
19.01.2016 16:15 -3,4 C -3,3 C 80 % 1018,2 hPa 0,0 mm 0,8 km/h (0 Bft) O-NO 67 -6,3 C 4,7 km/h (1 Bft)
19.01.2016 16:20 -3,5 C -3,5 C 80 % 1018,2 hPa 0,0 mm 0,5 km/h (0 Bft) O-NO 67 -6,4 C 0,0 km/h (0 Bft)
19.01.2016 16:25 -3,6 C -3,5 C 80 % 1018,3 hPa 0,0 mm 0,3 km/h (0 Bft) O-NO 67 -6,5 C 0,0 km/h (0 Bft)
19.01.2016 16:30 -3,6 C -3,6 C 80 % 1018,3 hPa 0,0 mm 0,0 km/h (0 Bft) O 90 -6,5 C 0,0 km/h (0 Bft)
19.01.2016 16:35 -3,6 C -3,6 C 81 % 1018,3 hPa 0,0 mm 0,0 km/h (0 Bft) O-NO 67 -6,4 C 0,0 km/h (0 Bft)
19.01.2016 16:40 -3,6 C -3,6 C 81 % 1018,3 hPa 0,0 mm 0,0 km/h (0 Bft) NO 45 -6,4 C 0,0 km/h (0 Bft)
19.01.2016 16:45 -3,6 C -3,6 C 81 % 1018,4 hPa 0,0 mm 0,0 km/h (0 Bft) O-NO 67 -6,4 C 0,0 km/h (0 Bft)
19.01.2016 16:50 -3,6 C -3,6 C 81 % 1018,4 hPa 0,0 mm 0,0 km/h (0 Bft) O-NO 67 -6,4 C 0,0 km/h (0 Bft)
19.01.2016 16:55 -3,6 C -3,6 C 81 % 1018,4 hPa 0,0 mm 0,0 km/h (0 Bft) O-NO 67 -6,4 C 0,0 km/h (0 Bft)
19.01.2016 17:00 -3,5 C -3,6 C 81 % 1018,4 hPa 0,0 mm 0,0 km/h (0 Bft) O-NO 67 -6,3 C 0,0 km/h (0 Bft)
19.01.2016 17:05 -3,5 C -3,6 C 81 % 1018,5 hPa 0,0 mm 0,0 km/h (0 Bft) NO 45 -6,3 C 0,0 km/h (0 Bft)
19.01.2016 17:10 -3,5 C -3,6 C 81 % 1018,5 hPa 0,0 mm 0,0 km/h (0 Bft) NO 45 -6,3 C 0,0 km/h (0 Bft)
19.01.2016 17:15 -3,5 C -3,6 C 81 % 1018,5 hPa 0,0 mm 0,0 km/h (0 Bft) NO 45 -6,3 C 0,0 km/h (0 Bft)
19.01.2016 17:20 -3,5 C -3,6 C 81 % 1018,5 hPa 0,0 mm 0,0 km/h (0 Bft) NO 45 -6,3 C 0,0 km/h (0 Bft)
19.01.2016 17:25 -3,5 C -3,6 C 81 % 1018,5 hPa 0,0 mm 0,0 km/h (0 Bft) NO 45 -6,3 C 0,0 km/h (0 Bft)
19.01.2016 17:30 -3,5 C -3,6 C 82 % 1018,5 hPa 0,0 mm 0,0 km/h (0 Bft) NO 45 -6,1 C 0,0 km/h (0 Bft)
19.01.2016 17:35 -3,5 C -3,5 C 82 % 1018,5 hPa 0,0 mm 0,0 km/h (0 Bft) NO 45 -6,1 C 0,0 km/h (0 Bft)
19.01.2016 17:40 -3,5 C -3,6 C 82 % 1018,5 hPa 0,0 mm 0,0 km/h (0 Bft) NO 45 -6,1 C 0,0 km/h (0 Bft)
19.01.2016 17:45 -3,5 C -3,6 C 82 % 1018,5 hPa 0,0 mm 0,0 km/h (0 Bft) O-NO 67 -6,1 C 0,0 km/h (0 Bft)
19.01.2016 17:50 -3,5 C -3,5 C 82 % 1018,5 hPa 0,0 mm 0,0 km/h (0 Bft) O-NO 67 -6,1 C 0,0 km/h (0 Bft)
19.01.2016 17:55 -3,5 C -3,5 C 82 % 1018,5 hPa 0,0 mm 0,0 km/h (0 Bft) O-NO 67 -6,1 C 0,0 km/h (0 Bft)
19.01.2016 18:00 -3,4 C -3,5 C 82 % 1018,5 hPa 0,0 mm 0,0 km/h (0 Bft) O-SO 112 -6,0 C 0,0 km/h (0 Bft)
19.01.2016 18:05 -3,4 C -3,5 C 82 % 1018,7 hPa 0,0 mm 0,0 km/h (0 Bft) O-NO 67 -6,0 C 0,0 km/h (0 Bft)
19.01.2016 18:10 -3,4 C -3,4 C 82 % 1018,7 hPa 0,0 mm 0,0 km/h (0 Bft) O-NO 67 -6,0 C 0,0 km/h (0 Bft)
19.01.2016 18:15 -3,4 C -3,4 C 82 % 1018,7 hPa 0,0 mm 0,0 km/h (0 Bft) O-SO 112 -6,0 C 0,0 km/h (0 Bft)
19.01.2016 18:20 -3,4 C -3,4 C 82 % 1018,7 hPa 0,0 mm 0,0 km/h (0 Bft) O-NO 67 -6,0 C 0,0 km/h (0 Bft)
19.01.2016 18:25 -3,4 C -3,4 C 82 % 1018,7 hPa 0,0 mm 0,0 km/h (0 Bft) O 90 -6,0 C 0,0 km/h (0 Bft)
19.01.2016 18:30 -3,2 C -3,4 C 85 % 1018,7 hPa 0,0 mm 0,0 km/h (0 Bft) O 90 -5,4 C 0,0 km/h (0 Bft)
19.01.2016 18:35 -3,2 C -3,3 C 82 % 1018,7 hPa 0,0 mm 0,0 km/h (0 Bft) O 90 -5,8 C 0,0 km/h (0 Bft)
19.01.2016 18:40 -3,2 C -3,3 C 83 % 1018,7 hPa 0,0 mm 0,0 km/h (0 Bft) NO 45 -5,7 C 0,0 km/h (0 Bft)
19.01.2016 18:45 -3,2 C -3,3 C 83 % 1018,7 hPa 0,0 mm 0,0 km/h (0 Bft) O-SO 112 -5,7 C 0,0 km/h (0 Bft)
19.01.2016 18:50 -3,1 C -3,2 C 83 % 1018,7 hPa 0,0 mm 0,0 km/h (0 Bft) NO 45 -5,6 C 0,0 km/h (0 Bft)
19.01.2016 18:55 -3,2 C -3,3 C 83 % 1018,7 hPa 0,0 mm 0,0 km/h (0 Bft) NO 45 -5,7 C 0,0 km/h (0 Bft)
19.01.2016 19:00 -3,2 C -3,3 C 83 % 1018,7 hPa 0,0 mm 0,0 km/h (0 Bft) NO 45 -5,7 C 0,0 km/h (0 Bft)
19.01.2016 19:05 -3,2 C -3,3 C 83 % 1019,1 hPa 0,0 mm 0,0 km/h (0 Bft) O-NO 67 -5,7 C 0,0 km/h (0 Bft)
19.01.2016 19:10 -3,2 C -3,3 C 83 % 1019,1 hPa 0,0 mm 0,0 km/h (0 Bft) O-SO 112 -5,7 C 0,0 km/h (0 Bft)
19.01.2016 19:15 -3,1 C -3,3 C 85 % 1019,1 hPa 0,0 mm 0,0 km/h (0 Bft) N-NO 22 -5,3 C 0,0 km/h (0 Bft)
19.01.2016 19:20 -3,1 C -3,3 C 85 % 1019,1 hPa 0,0 mm 0,5 km/h (0 Bft) O-SO 112 -5,3 C 0,0 km/h (0 Bft)
19.01.2016 19:25 -3,1 C -3,2 C 83 % 1018,9 hPa 0,0 mm 0,5 km/h (0 Bft) O-SO 112 -5,6 C 0,0 km/h (0 Bft)
19.01.2016 19:30 -3,1 C -3,2 C 83 % 1018,9 hPa 0,0 mm 0,0 km/h (0 Bft) NO 45 -5,6 C 0,0 km/h (0 Bft)
19.01.2016 19:35 -3,1 C -3,2 C 83 % 1018,9 hPa 0,0 mm 0,0 km/h (0 Bft) N-NO 22 -5,6 C 0,0 km/h (0 Bft)
19.01.2016 19:40 -3,0 C -3,1 C 83 % 1018,9 hPa 0,0 mm 0,0 km/h (0 Bft) O-NO 67 -5,5 C 0,0 km/h (0 Bft)
19.01.2016 19:45 -3,0 C -3,1 C 83 % 1018,9 hPa 0,0 mm 0,3 km/h (0 Bft) W-NW 292 -5,5 C 0,0 km/h (0 Bft)
19.01.2016 19:50 -3,0 C -3,1 C 83 % 1018,9 hPa 0,0 mm 0,3 km/h (0 Bft) N-NW 337 -5,5 C 0,0 km/h (0 Bft)
19.01.2016 19:55 -3,0 C -3,1 C 83 % 1018,9 hPa 0,0 mm 0,0 km/h (0 Bft) N-NW 337 -5,5 C 0,0 km/h (0 Bft)
19.01.2016 20:00 -3,1 C -3,2 C 83 % 1018,9 hPa 0,0 mm 0,0 km/h (0 Bft) W-NW 292 -5,6 C 0,0 km/h (0 Bft)
19.01.2016 20:05 -3,1 C -3,2 C 83 % 1019,0 hPa 0,0 mm 0,0 km/h (0 Bft) W-NW 292 -5,6 C 0,0 km/h (0 Bft)
19.01.2016 20:10 -3,1 C -3,2 C 84 % 1019,0 hPa 0,0 mm 0,0 km/h (0 Bft) W-NW 292 -5,4 C 0,0 km/h (0 Bft)
19.01.2016 20:15 -3,1 C -3,3 C 86 % 1019,0 hPa 0,0 mm 0,0 km/h (0 Bft) W-NW 292 -5,1 C 0,0 km/h (0 Bft)
19.01.2016 20:20 -3,1 C -3,3 C 86 % 1019,0 hPa 0,0 mm 0,0 km/h (0 Bft) NW 315 -5,1 C 0,0 km/h (0 Bft)
19.01.2016 20:25 -3,2 C -3,3 C 84 % 1019,0 hPa 0,0 mm 0,0 km/h (0 Bft) W-NW 292 -5,5 C 0,0 km/h (0 Bft)
19.01.2016 20:30 -3,2 C -3,3 C 84 % 1019,0 hPa 0,0 mm 0,0 km/h (0 Bft) W-NW 292 -5,5 C 0,0 km/h (0 Bft)
19.01.2016 20:35 -3,2 C -3,3 C 84 % 1019,0 hPa 0,0 mm 0,0 km/h (0 Bft) W-NW 292 -5,5 C 0,0 km/h (0 Bft)
19.01.2016 20:40 -3,2 C -3,3 C 84 % 1019,0 hPa 0,0 mm 0,0 km/h (0 Bft) W-NW 292 -5,5 C 0,0 km/h (0 Bft)
19.01.2016 20:45 -3,2 C -3,3 C 84 % 1019,0 hPa 0,0 mm 0,0 km/h (0 Bft) W-NW 292 -5,5 C 0,0 km/h (0 Bft)
19.01.2016 20:50 -3,2 C -3,3 C 84 % 1019,0 hPa 0,0 mm 0,0 km/h (0 Bft) N 360 -5,5 C 0,0 km/h (0 Bft)
19.01.2016 20:55 -3,2 C -3,3 C 84 % 1019,0 hPa 0,0 mm 0,0 km/h (0 Bft) N 360 -5,5 C 0,0 km/h (0 Bft)
19.01.2016 21:00 -3,2 C -3,3 C 84 % 1019,0 hPa 0,0 mm 0,0 km/h (0 Bft) N 360 -5,5 C 0,0 km/h (0 Bft)
19.01.2016 21:05 -3,2 C -3,3 C 84 % 1019,0 hPa 0,0 mm 0,0 km/h (0 Bft) N-NW 337 -5,5 C 0,0 km/h (0 Bft)
19.01.2016 21:10 -3,2 C -3,3 C 84 % 1019,0 hPa 0,0 mm 0,3 km/h (0 Bft) W-SW 247 -5,5 C 0,0 km/h (0 Bft)
19.01.2016 21:15 -3,2 C -3,3 C 84 % 1019,0 hPa 0,0 mm 0,3 km/h (0 Bft) NW 315 -5,5 C 0,0 km/h (0 Bft)
19.01.2016 21:20 -3,1 C -3,2 C 84 % 1019,0 hPa 0,0 mm 0,0 km/h (0 Bft) NW 315 -5,4 C 0,0 km/h (0 Bft)
19.01.2016 21:25 -3,1 C -3,2 C 84 % 1019,2 hPa 0,0 mm 0,0 km/h (0 Bft) NW 315 -5,4 C 0,0 km/h (0 Bft)
19.01.2016 21:30 -3,1 C -3,3 C 86 % 1019,2 hPa 0,0 mm 0,0 km/h (0 Bft) NW 315 -5,1 C 0,0 km/h (0 Bft)
19.01.2016 21:35 -3,1 C -3,3 C 86 % 1019,2 hPa 0,0 mm 0,0 km/h (0 Bft) NW 315 -5,1 C 0,0 km/h (0 Bft)
19.01.2016 21:40 -3,1 C -3,3 C 86 % 1019,2 hPa 0,0 mm 0,0 km/h (0 Bft) NW 315 -5,1 C 0,0 km/h (0 Bft)
19.01.2016 21:44 -3,1 C -3,3 C 86 % 1019,2 hPa 0,0 mm 0,0 km/h (0 Bft) NW 315 -5,1 C 0,0 km/h (0 Bft)
19.01.2016 21:45 -3,1 C -3,3 C 86 % 1019,3 hPa 0,0 mm 0,0 km/h (0 Bft) NW 315 -5,1 C 0,0 km/h (0 Bft)
19.01.2016 21:50 -3,1 C -3,2 C 84 % 1019,3 hPa 0,0 mm 0,0 km/h (0 Bft) NW 315 -5,4 C 0,0 km/h (0 Bft)
19.01.2016 21:55 -3,1 C -3,2 C 84 % 1019,3 hPa 0,0 mm 0,0 km/h (0 Bft) NW 315 -5,4 C 0,0 km/h (0 Bft)
19.01.2016 22:00 -3,1 C -3,1 C 84 % 1019,3 hPa 0,0 mm 0,0 km/h (0 Bft) NW 315 -5,4 C 0,0 km/h (0 Bft)
19.01.2016 22:05 -3,1 C -3,1 C 84 % 1019,3 hPa 0,0 mm 0,0 km/h (0 Bft) NW 315 -5,4 C 0,0 km/h (0 Bft)
19.01.2016 22:10 -3,0 C -3,1 C 84 % 1019,3 hPa 0,0 mm 0,0 km/h (0 Bft) NW 315 -5,3 C 0,0 km/h (0 Bft)
19.01.2016 22:15 -3,0 C -3,1 C 84 % 1019,3 hPa 0,0 mm 0,0 km/h (0 Bft) NW 315 -5,3 C 0,0 km/h (0 Bft)
19.01.2016 22:20 -3,0 C -3,1 C 84 % 1019,3 hPa 0,0 mm 0,0 km/h (0 Bft) NW 315 -5,3 C 0,0 km/h (0 Bft)
19.01.2016 22:25 -3,0 C -3,1 C 84 % 1019,5 hPa 0,0 mm 0,0 km/h (0 Bft) NW 315 -5,3 C 0,0 km/h (0 Bft)
19.01.2016 22:30 -3,0 C -3,0 C 84 % 1019,5 hPa 0,0 mm 0,0 km/h (0 Bft) NW 315 -5,3 C 0,0 km/h (0 Bft)
19.01.2016 22:35 -3,0 C -3,0 C 85 % 1019,5 hPa 0,0 mm 0,0 km/h (0 Bft) NW 315 -5,2 C 0,0 km/h (0 Bft)
19.01.2016 22:40 -3,0 C -3,0 C 85 % 1019,5 hPa 0,0 mm 0,0 km/h (0 Bft) NW 315 -5,2 C 0,0 km/h (0 Bft)
19.01.2016 22:45 -3,0 C -2,9 C 85 % 1019,4 hPa 0,0 mm 0,0 km/h (0 Bft) NW 315 -5,2 C 0,0 km/h (0 Bft)
19.01.2016 22:50 -3,0 C -2,9 C 85 % 1019,4 hPa 0,0 mm 0,0 km/h (0 Bft) NW 315 -5,2 C 0,0 km/h (0 Bft)
19.01.2016 22:55 -3,0 C -2,9 C 85 % 1019,4 hPa 0,0 mm 0,0 km/h (0 Bft) NW 315 -5,2 C 0,0 km/h (0 Bft)
19.01.2016 23:00 -3,0 C -3,0 C 85 % 1019,4 hPa 0,0 mm 0,0 km/h (0 Bft) NW 315 -5,2 C 0,0 km/h (0 Bft)
19.01.2016 23:05 -3,0 C -3,0 C 85 % 1019,3 hPa 0,0 mm 0,0 km/h (0 Bft) NW 315 -5,2 C 0,0 km/h (0 Bft)
19.01.2016 23:10 -3,0 C -3,1 C 85 % 1019,3 hPa 0,0 mm 0,0 km/h (0 Bft) NW 315 -5,2 C 0,0 km/h (0 Bft)
19.01.2016 23:15 -3,0 C -3,0 C 85 % 1019,3 hPa 0,0 mm 0,0 km/h (0 Bft) NW 315 -5,2 C 0,0 km/h (0 Bft)
19.01.2016 23:20 -3,0 C -3,1 C 85 % 1019,3 hPa 0,0 mm 0,0 km/h (0 Bft) NW 315 -5,2 C 0,0 km/h (0 Bft)
19.01.2016 23:25 -3,0 C -3,1 C 85 % 1019,4 hPa 0,0 mm 0,0 km/h (0 Bft) NW 315 -5,2 C 0,0 km/h (0 Bft)
19.01.2016 23:30 -3,0 C -3,1 C 85 % 1019,4 hPa 0,0 mm 0,0 km/h (0 Bft) NW 315 -5,2 C 0,0 km/h (0 Bft)
19.01.2016 23:35 -3,0 C -3,1 C 85 % 1019,4 hPa 0,0 mm 0,0 km/h (0 Bft) NW 315 -5,2 C 0,0 km/h (0 Bft)
19.01.2016 23:40 -3,0 C -3,1 C 85 % 1019,4 hPa 0,0 mm 0,0 km/h (0 Bft) NW 315 -5,2 C 0,0 km/h (0 Bft)
19.01.2016 23:45 -3,0 C -3,0 C 85 % 1019,6 hPa 0,0 mm 0,0 km/h (0 Bft) NW 315 -5,2 C 0,0 km/h (0 Bft)
19.01.2016 23:50 -3,0 C -3,0 C 85 % 1019,6 hPa 0,0 mm 0,0 km/h (0 Bft) NW 315 -5,2 C 0,0 km/h (0 Bft)
19.01.2016 23:55 -3,0 C -3,0 C 85 % 1019,6 hPa 0,0 mm 0,0 km/h (0 Bft) NW 315 -5,2 C 0,0 km/h (0 Bft)
_ Min-Zeit 01:20 01:20 12:45 06:20 - 23:55 - - 01:20 23:55
Minimum _ -17,6 C -17,8 C 73 % 1017,1 hPa - 0,0 km/h (0 Bft) - - -20,9 C 0,0 km/h (0 Bft)
_ Max-Zeit 23:55 12:25 21:45 23:55 23:55 14:00 - - 21:45 16:05
Maximum _ -3,0 C -2,2 C 86 % 1019,6 hPa 0,0 mm 5,4 km/h
O-NO (1 Bft)
- - -5,1 C 8,5 km/h
N-NW (2 Bft)
Durchschnitt _ -6,7 C -6,5 C 80 % 1018,4 hPa #0,0 mm 0,5 km/h (0 Bft) O-NO - -9,5 C 0,8 km/h (0 Bft)